Location: Unspecified
(47.1121°N, 116.3927°W)
Time: 23:59:09
(UTC-07:00)

N. Korean satellite - Visible Passes

Search period start: 15 October 2019 00:00
Search period end: 25 October 2019 00:00
Orbit: 455 x 508 km, 97.2° (Epoch: 15 October)

Date Brightness Start Highest point End Pass type
(mag) Time Alt. Az. Time Alt. Az. Time Alt. Az.
15 Oct 8.8 06:13:32 10° NNE 06:16:46 31° E 06:20:01 10° SSE visible
15 Oct 8.9 18:25:24 10° SSW 18:28:25 29° W 18:31:29 10° NNW visible
16 Oct 10.0 05:48:56 10° NE 05:51:19 17° E 05:53:43 10° SE visible
18 Oct 7.6 06:30:49 10° NNE 06:34:20 52° E 06:37:53 10° S visible
18 Oct 9.8 18:43:34 10° SW 18:46:02 18° W 18:48:31 10° NW visible
19 Oct 9.1 06:05:51 10° NE 06:08:57 26° E 06:12:03 10° SSE visible
19 Oct 8.4 18:17:24 10° SSW 18:20:34 36° W 18:23:48 10° NNW visible
20 Oct 10.1 05:41:28 10° ENE 05:43:28 14° E 05:45:29 10° SE visible
21 Oct 10.3 19:02:21 10° WSW 19:03:39 12° W 19:04:57 10° WNW visible
22 Oct 8.1 06:23:02 10° NNE 06:26:30 42° E 06:30:01 10° S visible
22 Oct 9.4 18:35:22 10° SSW 18:38:08 22° W 18:40:55 10° NW visible
23 Oct 9.5 05:58:10 10° NE 06:01:05 22° E 06:04:00 10° SSE visible
24 Oct 10.4 05:34:10 10° ENE 05:35:34 12° E 05:36:59 10° ESE visible
